Hourly Data Report for September 21, 2017

All times are specified in Local Standard Time (LST). Add 1 hour to adjust for Daylight Saving Time where and when it is observed.

POND INLET A
NUNAVUT

72°41'22.000" N
77°58'08.000" W
61.60 m
2403206
71095
YIO

Download Data

Hourly Data (September 2017)
Hourly Data Report for September 21, 2017
Temp Definition
°C
Dew Point Temp Definition
°C
Rel Hum Definition
%
Wind Dir Definition
10's deg

Wind Spd Definition
km/h
Visibility Definition
km
Stn Press Definition
kPa
Hmdx Definition


Wind Chill Definition


Weather Definition


TIME
00:00 Legend Double Dagger -5.1 -6.8 88 15 18 16.1 101.98   -11 LegendNANA
01:00 Legend Double Dagger -4.7 -6.4 88 16 13 16.1 101.97   -10 LegendNANA
02:00 Legend Double Dagger -5.3 -7.0 88 15 21 16.1 101.96   -12 LegendNANA
03:00 Legend Double Dagger -5.5 -7.3 87 15 21 16.1 101.95   -12 LegendNANA
04:00 Legend Double Dagger -5.1 -6.8 88 15 18 16.1 101.91   -11 LegendNANA
05:00 Legend Double Dagger -5.3 -7.1 87 15 18 16.1 101.89   -12 LegendNANA
06:00 Legend Double Dagger -5.3 -7.1 87 15 17 16.1 101.88   -11 LegendNANA
07:00 Legend Double Dagger -5.0 -6.7 88 15 17 16.1 101.84   -11 LegendNANA
08:00 Legend Double Dagger -4.8 -6.6 87 17 18 16.1 101.79   -11 LegendNANA
09:00 Legend Double Dagger -4.5 -6.5 86 16 17 16.1 101.76   -10 LegendNANA
10:00 Legend Double Dagger -4.0 -6.3 84 17 15 16.1 101.70   -9 LegendNANA
11:00 Legend Double Dagger -3.8 -6.1 84 16 17 16.1 101.67   -10 LegendNANA
12:00 Legend Double Dagger -3.4 -5.9 83 16 15 16.1 101.62   -9 LegendNANA
13:00 Legend Double Dagger -3.1 -5.6 83 17 13 16.1 101.58   -8 LegendNANA
14:00 Legend Double Dagger -3.3 -5.8 83 17 17 16.1 101.54   -9 LegendNANA
15:00 Legend Double Dagger -3.8 -6.1 84 17 18 16.1 101.48   -10 LegendNANA
16:00 Legend Double Dagger -4.0 -6.2 85 18 17 16.1 101.47   -10 LegendNANA
17:00 Legend Double Dagger -4.8 -6.6 87 16 18 16.1 101.43   -11 LegendNANA
18:00 Legend Double Dagger -5.3 -6.8 89 16 17 16.1 101.40   -11 LegendNANA
19:00 Legend Double Dagger -5.6 -7.0 90 15 21 16.1 101.36   -12 LegendNANA
20:00 Legend Double Dagger -5.4 -6.6 91 16 21 16.1 101.32   -12 LegendNANA
21:00 Legend Double Dagger -5.3 -6.7 90 15 17 16.1 101.29   -11 LegendNANA
22:00 Legend Double Dagger -5.4 -6.9 89 16 18 16.1 101.24   -12 LegendNANA
23:00 Legend Double Dagger -5.6 -7.0 90 15 21 16.1 101.18   -12 LegendNANA

Notes on Data Quality.

Legend

  • E = Estimated
  • M = Missing
  • NA = Not Available
  • ‡ = Partner data that is not subject to review by the National Climate Archives
Date modified: